FW3849 Weather Reports


time (UTC)temp
C
wind
direction
speed
KPH
gust
KPH
rain 1hr
cm
rain 24hr
cm
rain mn
cm
humidity
%
barometer
mb
20260510065037 22 147 4.8 11.3 0.00 0.00 0.00 47 1008.5
20260510064541 23 168 6.4 11.3 0.00 0.00 0.00 47 1008.5
20260510064033 23 185 8.0 16.1 0.00 0.00 0.00 46 1008.7
20260510063532 23 180 9.7 16.1 0.00 0.00 0.00 46 1008.6
20260510063039 23 194 9.7 14.5 0.00 0.00 0.00 47 1008.7
20260510062533 23 181 6.4 9.7 0.00 0.00 0.00 47 1008.7
20260510062032 23 182 4.8 14.5 0.00 0.00 0.00 46 1008.8
20260510061532 23 181 4.8 12.9 0.00 0.00 0.00 46 1008.8
20260510060532 23 191 6.4 12.9 0.00 0.00 0.00 46 1008.9
20260510060033 23 191 4.8 8.0 0.00 0.00 0.00 45 1009.0
20260510055531 23 183 4.8 8.0 0.00 0.00 0.00 45 1009.0
20260510055031 23 188 3.2 8.0 0.00 0.00 0.00 44 1009.1
20260510054531 23 200 4.8 8.0 0.00 0.00 0.00 43 1009.1
20260510054035 24 170 3.2 6.4 0.00 0.00 0.00 42 1008.9
20260510053530 25 183 3.2 8.0 0.00 0.00 0.00 41 1008.9
20260510053035 25 137 3.2 17.7 0.00 0.00 0.00 40 1009.0
20260510052532 25 177 6.4 17.7 0.00 0.00 0.00 39 1009.0
20260510052031 25 199 8.0 17.7 0.00 0.00 0.00 39 1009.1
20260510051534 24 171 6.4 16.1 0.00 0.00 0.00 41 1009.1
20260510050535 23 187 8.0 16.1 0.00 0.00 0.00 42 1008.9
20260510050030 23 160 4.8 9.7 0.00 0.00 0.00 41 1008.9
20260510045530 23 165 1.6 6.4 0.00 0.00 0.00 40 1008.9
20260510045033 23 189 3.2 6.4 0.00 0.00 0.00 39 1008.9
20260510044539 23 152 3.2 6.4 0.00 0.00 0.00 38 1008.9
20260510044031 23 179 3.2 9.7 0.00 0.00 0.00 37 1008.8
20260510043529 23 204 4.8 11.3 0.00 0.00 0.00 36 1008.8
20260510043028 23 187 8.0 11.3 0.00 0.00 0.00 36 1008.8
20260510042528 23 197 3.2 6.4 0.00 0.00 0.00 36 1008.8
20260510042028 23 197 3.2 8.0 0.00 0.00 0.00 35 1008.8
20260510041528 24 189 6.4 12.9 0.00 0.00 0.00 33 1008.8
20260510040529 25 202 6.4 12.9 0.00 0.00 0.00 32 1008.8
20260510040031 25 200 8.0 12.9 0.00 0.00 0.00 32 1008.6
20260510035527 25 199 4.8 11.3 0.00 0.00 0.00 32 1008.6
20260510035030 25 193 6.4 9.7 0.00 0.00 0.00 32 1008.7
20260510034534 25 191 4.8 12.9 0.00 0.00 0.00 32 1008.6
20260510034030 25 159 6.4 12.9 0.00 0.00 0.00 31 1008.5
20260510033527 26 228 6.4 9.7 0.00 0.00 0.00 31 1008.6
20260510033026 26 213 4.8 14.5 0.00 0.00 0.00 30 1008.5
20260510032529 26 184 6.4 14.5 0.00 0.00 0.00 30 1008.4
20260510032027 26 177 6.4 17.7 0.00 0.00 0.00 29 1008.4
20260510031532 26 193 4.8 9.7 0.00 0.00 0.00 30 1008.3
20260510030526 26 182 4.8 9.7 0.00 0.00 0.00 30 1008.3
20260510030027 26 200 6.4 11.3 0.00 0.00 0.00 30 1008.2
20260510025526 26 185 4.8 9.7 0.00 0.00 0.00 29 1008.3
20260510025026 27 191 3.2 9.7 0.00 0.00 0.00 29 1008.2
20260510024527 27 191 4.8 9.7 0.00 0.00 0.00 29 1008.2
20260510024025 27 191 4.8 8.0 0.00 0.00 0.00 28 1008.2
20260510023525 27 177 4.8 9.7 0.00 0.00 0.00 28 1008.1
20260510023025 27 183 4.8 9.7 0.00 0.00 0.00 28 1008.1
20260510022525 27 190 3.2 8.0 0.00 0.00 0.00 27 1008.1
20260510022025 27 179 3.2 6.4 0.00 0.00 0.00 27 1008.1
20260510021534 28 158 1.6 6.4 0.00 0.00 0.00 26 1007.9
20260510020525 28 158 3.2 9.7 0.00 0.00 0.00 25 1007.8
20260510020024 28 165 3.2 9.7 0.00 0.00 0.00 25 1007.7
20260510015524 29 189 1.6 8.0 0.00 0.00 0.00 24 1007.6
20260510015028 29 191 3.2 11.3 0.00 0.00 0.00 24 1007.6
20260510014524 30 176 6.4 12.9 0.00 0.00 0.00 23 1007.5
20260510014027 30 183 4.8 8.0 0.00 0.00 0.00 23 1007.4
20260510013524 30 206 4.8 9.7 0.00 0.00 0.00 22 1007.2
20260510013023 30 206 4.8 11.3 0.00 0.00 0.00 22 1007.2
20260510012523 31 196 4.8 12.9 0.00 0.00 0.00 22 1007.2
20260510012023 31 199 6.4 14.5 0.00 0.00 0.00 21 1007.1
20260510011522 31 209 8.0 16.1 0.00 0.00 0.00 21 1007.1
20260510010523 31 204 6.4 17.7 0.00 0.00 0.00 20 1007.0
20260510010024 31 189 6.4 17.7 0.00 0.00 0.00 19 1006.9
20260510005523 32 181 9.7 16.1 0.00 0.00 0.00 18 1006.9
20260510005023 32 170 4.8 19.3 0.00 0.00 0.00 18 1006.9
20260510004522 32 175 9.7 19.3 0.00 0.00 0.00 17 1006.9
20260510004023 32 198 8.0 19.3 0.00 0.00 0.00 18 1006.8
20260510003522 32 202 8.0 20.9 0.00 0.00 0.00 17 1006.8
20260510003026 32 204 9.7 20.9 0.00 0.00 0.00 16 1006.7
20260510002522 32 212 11.3 20.9 0.00 0.00 0.00 14 1006.7
20260510002021 32 193 6.4 17.7 0.00 0.00 0.00 16 1006.7
20260510001523 32 180 8.0 16.1 0.00 0.00 0.00 15 1006.8
20260510000521 33 243 9.7 17.7 0.00 0.00 0.00 14 1006.8
20260510000021 33 227 9.7 17.7 0.00 0.00 0.00 15 1006.7
20260509235520 33 222 8.0 17.7 0.00 0.00 0.00 15 1006.7
20260509235019 33 237 11.3 17.7 0.00 0.00 0.00 14 1006.7
20260509234524 33 281 6.4 19.3 0.00 0.00 0.00 13 1006.7
20260509234018 33 244 11.3 20.9 0.00 0.00 0.00 13 1006.7
20260509233518 33 260 14.5 22.5 0.00 0.00 0.00 13 1006.7
20260509233118 33 248 12.9 22.5 0.00 0.00 0.00 14 1006.7
20260509232517 33 239 6.4 14.5 0.00 0.00 0.00 14 1006.9
20260509232017 33 212 8.0 22.5 0.00 0.00 0.00 15 1006.9
20260509231516 33 214 12.9 22.5 0.00 0.00 0.00 14 1006.9
20260509230516 33 189 11.3 17.7 0.00 0.00 0.00 13 1006.9
20260509230015 33 237 8.0 16.1 0.00 0.00 0.00 16 1006.9
20260509225515 33 238 6.4 17.7 0.00 0.00 0.00 17 1006.9
20260509225019 33 233 3.2 17.7 0.00 0.00 0.00 16 1007.0
20260509224513 33 231 6.4 17.7 0.00 0.00 0.00 16 1007.1
20260509224014 33 247 9.7 17.7 0.00 0.00 0.00 16 1007.2
20260509223512 33 193 9.7 20.9 0.00 0.00 0.00 17 1007.2
20260509223012 33 200 12.9 19.3 0.00 0.00 0.00 16 1007.1
20260509222511 33 192 9.7 22.5 0.00 0.00 0.00 17 1007.2
20260509222011 32 203 8.0 19.3 0.00 0.00 0.00 17 1007.2
20260509221511 33 202 9.7 20.9 0.00 0.00 0.00 18 1007.3
20260509220513 33 204 6.4 20.9 0.00 0.00 0.00 18 1007.3
20260509220013 33 224 12.9 20.9 0.00 0.00 0.00 18 1007.4
20260509215513 32 231 11.3 19.3 0.00 0.00 0.00 19 1007.4
20260509215012 32 238 9.7 20.9 0.00 0.00 0.00 20 1007.4
20260509214511 33 244 11.3 19.3 0.00 0.00 0.00 18 1007.5
20260509214011 32 202 8.0 19.3 0.00 0.00 0.00 17 1007.5
20260509213511 32 258 9.7 19.3 0.00 0.00 0.00 19 1007.5
20260509213010 32 215 12.9 17.7 0.00 0.00 0.00 20 1007.6
20260509212509 32 225 8.0 22.5 0.00 0.00 0.00 20 1007.7
20260509212109 32 208 22.5 22.5 0.00 0.00 0.00 20 1007.7
20260509211512 32 226 4.8 16.1 0.00 0.00 0.00 18 1007.7
20260509210505 32 231 8.0 16.1 0.00 0.00 0.00 18 1008.0
20260509210009 32 245 9.7 16.1 0.00 0.00 0.00 18 1008.1
20260509205502 32 250 4.8 20.9 0.00 0.00 0.00 21 1008.3
20260509205001 32 142 8.0 20.9 0.00 0.00 0.00 21 1008.4
20260509204501 32 287 3.2 16.1 0.00 0.00 0.00 20 1008.5
20260509204101 32 229 4.8 19.3 0.00 0.00 0.00 20 1008.6
20260509204001 32 218 8.0 19.3 0.00 0.00 0.00 19 1008.6
20260509203602 32 212 11.3 19.3 0.00 0.00 0.00 20 1008.6
20260509203058 32 252 9.7 19.3 0.00 0.00 0.00 21 1008.7
20260509202600 32 185 9.7 19.3 0.00 0.00 0.00 21 1008.7
20260509202057 32 204 8.0 12.9 0.00 0.00 0.00 24 1008.8
20260509201601 31 277 14.5 22.5 0.00 0.00 0.00 23 1009.0
20260509200554 31 226 9.7 17.7 0.00 0.00 0.00 24 1009.0
20260509195552 31 164 4.8 17.7 0.00 0.00 0.00 25 1009.3
20260509195051 31 183 8.0 25.7 0.00 0.00 0.00 25 1009.3
20260509194551 31 229 12.9 25.7 0.00 0.00 0.00 26 1009.4
20260509194051 31 239 6.4 19.3 0.00 0.00 0.00 27 1009.4
20260509193550 31 148 4.8 19.3 0.00 0.00 0.00 27 1009.5
20260509193050 31 239 12.9 22.5 0.00 0.00 0.00 27 1009.6
20260509192547 31 195 12.9 22.5 0.00 0.00 0.00 28 1009.7
20260509192047 30 212 11.3 17.7 0.00 0.00 0.00 29 1009.8
20260509191546 30 243 9.7 20.9 0.00 0.00 0.00 31 1009.8
20260509190544 30 196 6.4 16.1 0.00 0.00 0.00 30 1010.0
20260509190051 30 147 6.4 20.9 0.00 0.00 0.00 31 1010.1
20260509185543 30 205 14.5 24.1 0.00 0.00 0.00 31 1010.0
20260509185042 30 187 11.3 24.1 0.00 0.00 0.00 32 1010.0
20260509184540 29 192 8.0 22.5 0.00 0.00 0.00 33 1010.1
20260509184039 29 173 6.4 19.3 0.00 0.00 0.00 34 1010.3
20260509183539 29 183 8.0 19.3 0.00 0.00 0.00 35 1010.4
20260509183040 29 218 11.3 19.3 0.00 0.00 0.00 35 1010.4
20260509182537 29 191 8.0 20.9 0.00 0.00 0.00 35 1010.6
20260509182035 28 181 14.5 20.9 0.00 0.00 0.00 36 1010.6
20260509181538 28 98 8.0 20.9 0.00 0.00 0.00 38 1010.8
20260509180537 28 248 9.7 20.9 0.00 0.00 0.00 38 1010.9
20260509180038 28 199 8.0 19.3 0.00 0.00 0.00 38 1010.9
20260509175535 27 205 9.7 17.7 0.00 0.00 0.00 40 1011.0
20260509175034 27 168 12.9 17.7 0.00 0.00 0.00 39 1011.1
20260509174533 27 206 4.8 16.1 0.00 0.00 0.00 43 1011.3
20260509174031 27 192 8.0 16.1 0.00 0.00 0.00 43 1011.3
20260509173532 27 208 8.0 20.9 0.00 0.00 0.00 41 1011.3
20260509173030 27 212 9.7 20.9 0.00 0.00 0.00 42 1011.3
20260509172529 27 214 9.7 19.3 0.00 0.00 0.00 44 1011.4
20260509172029 26 192 11.3 19.3 0.00 0.00 0.00 45 1011.4
20260509171536 26 177 8.0 19.3 0.00 0.00 0.00 46 1011.3
20260509170524 26 198 8.0 14.5 0.00 0.00 0.00 47 1011.5
20260509170027 26 198 8.0 14.5 0.00 0.00 0.00 48 1011.6
20260509165519 25 220 6.4 19.3 0.00 0.00 0.00 49 1011.6
20260509165018 25 197 12.9 20.9 0.00 0.00 0.00 49 1011.5
20260509164517 25 201 9.7 20.9 0.00 0.00 0.00 50 1011.8
20260509164016 25 152 8.0 16.1 0.00 0.00 0.00 51 1011.8
20260509163516 25 187 8.0 14.5 0.00 0.00 0.00 51 1011.9
20260509163015 25 190 4.8 9.7 0.00 0.00 0.00 52 1011.9
20260509162513 24 177 1.6 17.7 0.00 0.00 0.00 52 1012.0
20260509162014 24 166 8.0 17.7 0.00 0.00 0.00 53 1012.2
20260509161512 23 141 6.4 17.7 0.00 0.00 0.00 55 1012.1
20260509160513 23 117 8.0 17.7 0.00 0.00 0.00 55 1012.3
20260509160011 23 191 6.4 14.5 0.00 0.00 0.00 55 1012.1
20260509155511 23 187 6.4 17.7 0.00 0.00 0.00 56 1012.1
20260509155007 23 146 8.0 17.7 0.00 0.00 0.00 56 1012.1
20260509154506 23 199 6.4 17.7 0.00 0.00 0.00 56 1012.1
20260509154005 23 194 9.7 17.7 0.00 0.00 0.00 56 1012.0
20260509153607 23 160 8.0 16.1 0.00 0.00 0.00 57 1011.9
20260509153004 23 141 6.4 16.1 0.00 0.00 0.00 56 1011.9
20260509152503 23 108 6.4 14.5 0.00 0.00 0.00 56 1011.8
20260509152004 22 179 4.8 14.5 0.00 0.00 0.00 57 1011.8
20260509151501 22 172 6.4 12.9 0.00 0.00 0.00 57 1011.9
20260509150501 22 154 6.4 14.5 0.00 0.00 0.00 57 1011.9
20260509150005 22 168 8.0 14.5 0.00 0.00 0.00 57 1012.0
20260509145600 22 127 6.4 17.7 0.00 0.00 0.00 58 1012.0
20260509145103 22 218 8.0 17.7 0.00 0.00 0.00 58 1012.2
20260509144558 21 176 9.7 16.1 0.00 0.00 0.00 57 1012.2
20260509144057 21 154 9.7 17.7 0.00 0.00 0.00 58 1012.1
20260509143558 21 206 9.7 19.3 0.00 0.00 0.00 58 1012.2
20260509143057 21 134 8.0 19.3 0.00 0.00 0.00 58 1012.4
20260509142555 21 179 12.9 19.3 0.00 0.00 0.00 58 1012.3
20260509142057 21 205 8.0 16.1 0.00 0.00 0.00 59 1012.3
20260509141553 20 202 11.3 16.1 0.00 0.00 0.00 60 1012.3
20260509140553 20 164 8.0 16.1 0.00 0.00 0.00 60 1012.3
20260509135551 19 187 8.0 14.5 0.00 0.00 0.00 63 1012.2
20260509135050 19 147 8.0 16.1 0.00 0.00 0.00 64 1012.1
20260509134623 18 178 8.0 17.7 0.00 0.00 0.00 65 1012.1
20260509134051 18 183 8.0 17.7 0.00 0.00 0.00 67 1012.0
20260509133546 18 181 6.4 16.1 0.00 0.00 0.00 68 1012.1
20260509133047 17 198 8.0 14.5 0.00 0.00 0.00 68 1012.1
20260509132544 17 181 9.7 14.5 0.00 0.00 0.00 68 1012.2
20260509132043 17 154 6.4 14.5 0.00 0.00 0.00 68 1012.3
20260509131549 17 187 4.8 12.9 0.00 0.00 0.00 68 1012.4
20260509130540 17 193 3.2 8.0 0.00 0.00 0.00 68 1012.3
20260509130041 17 117 1.6 4.8 0.00 0.00 0.00 68 1012.2
20260509125539 16 37 0.0 4.8 0.00 0.00 0.00 68 1012.3
20260509125039 16 22 0.0 3.2 0.00 0.00 0.00 69 1012.3
20260509124539 16 20 0.0 4.8 0.00 0.00 0.00 69 1012.3
20260509124040 16 20 1.6 4.8 0.00 0.00 0.00 69 1012.3
20260509123538 16 20 3.2 4.8 0.00 0.00 0.00 69 1012.4
20260509123038 15 350 0.0 3.2 0.00 0.00 0.00 67 1012.2
20260509122537 16 350 0.0 3.2 0.00 0.00 0.00 67 1012.1
20260509122036 16 350 1.6 3.2 0.00 0.00 0.00 67 1012.2
20260509121535 16 350 1.6 3.2 0.00 0.00 0.00 67 1012.1
20260509120541 16 351 0.0 3.2 0.00 0.00 0.00 66 1011.8
20260509120043 16 351 0.0 3.2 0.00 0.00 0.00 66 1011.7
20260509115539 16 351 0.0 1.6 0.00 0.00 0.00 66 1011.6
20260509115039 16 351 0.0 1.6 0.00 0.00 0.00 66 1011.5
20260509114543 16 351 0.0 1.6 0.00 0.00 0.00 66 1011.4
20260509114038 16 351 0.0 3.2 0.00 0.00 0.00 65 1011.5
20260509113541 16 351 0.0 4.8 0.00 0.00 0.00 65 1011.6
20260509113039 16 351 1.6 4.8 0.00 0.00 0.00 65 1011.4
20260509112536 16 351 0.0 3.2 0.00 0.00 0.00 66 1011.4
20260509112036 16 351 0.0 3.2 0.00 0.00 0.00 66 1011.5
20260509111535 16 351 0.0 4.8 0.00 0.00 0.00 65 1011.3
20260509110528 16 351 0.0 4.8 0.00 0.00 0.00 65 1011.5
20260509110029 16 351 1.6 4.8 0.00 0.00 0.00 65 1011.6
20260509105529 16 351 1.6 4.8 0.00 0.00 0.00 65 1011.6
20260509105031 16 351 1.6 4.8 0.00 0.00 0.00 65 1011.7
20260509104527 17 351 1.6 3.2 0.00 0.00 0.00 65 1011.5
20260509104026 17 351 0.0 3.2 0.00 0.00 0.00 65 1011.4
20260509103525 17 351 0.0 3.2 0.00 0.00 0.00 65 1011.4
20260509103025 17 351 0.0 6.4 0.00 0.00 0.00 65 1011.4
20260509102523 17 351 1.6 6.4 0.00 0.00 0.00 64 1011.5
20260509102027 17 289 3.2 6.4 0.00 0.00 0.00 64 1011.5
20260509101534 17 216 0.0 0.0 0.00 0.00 0.00 64 1011.3
20260509100523 17 215 0.0 3.2 0.00 0.00 0.00 64 1011.5
20260509100025 17 215 0.0 3.2 0.00 0.00 0.00 64 1011.5
20260509095523 17 215 0.0 1.6 0.00 0.00 0.00 64 1011.4
20260509095023 17 215 0.0 4.8 0.00 0.00 0.00 64 1011.5
20260509094523 17 215 0.0 4.8 0.00 0.00 0.00 64 1011.3
20260509094022 17 215 1.6 4.8 0.00 0.00 0.00 63 1011.2
20260509093523 18 216 1.6 6.4 0.00 0.00 0.00 63 1011.1
20260509093023 18 216 3.2 6.4 0.00 0.00 0.00 64 1011.1
20260509092522 18 227 3.2 6.4 0.00 0.00 0.00 64 1011.1
20260509092026 18 103 0.0 4.8 0.00 0.00 0.00 64 1011.3
20260509091523 17 103 4.8 8.0 0.00 0.00 0.00 64 1011.2
20260509090523 17 64 3.2 6.4 0.00 0.00 0.00 64 1011.1
20260509090022 17 100 0.0 3.2 0.00 0.00 0.00 64 1010.8
20260509085522 18 100 1.6 3.2 0.00 0.00 0.00 64 1010.6
20260509085021 18 100 0.0 3.2 0.00 0.00 0.00 64 1010.6
20260509084522 18 100 0.0 4.8 0.00 0.00 0.00 64 1010.6
20260509084021 18 101 1.6 4.8 0.00 0.00 0.00 64 1010.6
20260509083522 18 97 1.6 6.4 0.00 0.00 0.00 64 1010.6
20260509083021 18 207 0.0 6.4 0.00 0.00 0.00 64 1010.5
20260509082522 18 200 3.2 4.8 0.00 0.00 0.00 64 1010.4
20260509082020 18 57 0.0 6.4 0.00 0.00 0.00 64 1010.6
20260509081521 18 57 3.2 6.4 0.00 0.00 0.00 64 1010.7
20260509080522 18 66 0.0 3.2 0.00 0.00 0.00 63 1010.6
20260509080023 18 66 0.0 3.2 0.00 0.00 0.00 63 1010.6
20260509075522 18 64 1.6 3.2 0.00 0.00 0.00 62 1010.6
20260509075022 19 63 0.0 1.6 0.00 0.00 0.00 63 1010.7
20260509074522 19 63 0.0 3.2 0.00 0.00 0.00 62 1010.7
20260509074021 19 63 0.0 4.8 0.00 0.00 0.00 62 1010.8
20260509073523 19 63 1.6 4.8 0.00 0.00 0.00 62 1010.9
20260509073021 19 63 3.2 4.8 0.00 0.00 0.00 62 1010.8
20260509072521 19 62 1.6 4.8 0.00 0.00 0.00 62 1010.8
20260509072023 19 62 0.0 4.8 0.00 0.00 0.00 62 1010.9
20260509071520 19 62 0.0 8.0 0.00 0.00 0.00 62 1010.9
20260509070526 19 62 0.0 8.0 0.00 0.00 0.00 62 1010.8
20260509070022 19 62 4.8 8.0 0.00 0.00 0.00 61 1010.7
20260509065521 19 48 1.6 4.8 0.00 0.00 0.00 60 1010.7